* Astronomy

Members Login
Username 
 
Password 
    Remember Me  
Post Info TOPIC: Asteroid 2011 YT62


L

Posts: 131433
Date:
Asteroid 2011 YT62
Permalink  
 


Orbital elements:
2011 YT62                                                Earth MOID = 0.0175 AU
Epoch 2012 Mar. 14.0 TT = JDT 2456000.5                 MPC
M 113.77104              (2000.0)            P               Q
n   0.75071900     Peri.  344.25522     +0.94367331     -0.32515393
a   1.1989961      Node    34.91168     +0.31396036     +0.82146349
e   0.1940804      Incl.    6.14698     +0.10444887     +0.46847910
P   1.31           H   22.3           G   0.15           U   8

MPEC 2012 - A05



__________________
Page 1 of 1  sorted by
 
Quick Reply

Please log in to post quick replies.



Create your own FREE Forum
Report Abuse
Powered by ActiveBoard